This is the latest recevied weather packets stored in our database for station/object K4ZZR. If no packets are shown the sender has not sent any weather packets the latest 10 day(s).
| Time | Temp. | Humidity | Pressure | Rain* | Wind** | Luminosity | Snow |
|---|---|---|---|---|---|---|---|
| 1778080416 | 27.78° C | 78% | 1017.3 hPa | 0 mm | - | 610 W/m² | - |
| 1778080113 | 27.22° C | 80% | 1017.3 hPa | 0 mm | - | 536 W/m² | - |
| 1778079810 | 27.22° C | 79% | 1017.2 hPa | 0 mm | - | 606 W/m² | - |
| 1778079507 | 27.22° C | 79% | 1017.2 hPa | 0 mm | - | 686 W/m² | - |
| 1778079203 | 27.78° C | 79% | 1017.3 hPa | 0 mm | - | 564 W/m² | - |
| 1778078901 | 27.22° C | 78% | 1017.4 hPa | 0 mm | - | 711 W/m² | - |
| 1778078597 | 27.22° C | 80% | 1017.3 hPa | 0 mm | - | 682 W/m² | - |
| 1778078296 | 27.22° C | 81% | 1017.3 hPa | 0 mm | - | 583 W/m² | - |
| 1778077992 | 27.22° C | 81% | 1017 hPa | 0 mm | - | 662 W/m² | - |
| 1778077690 | 27.22° C | 81% | 1017.1 hPa | 0 mm | - | 625 W/m² | - |
| 1778077388 | 27.22° C | 81% | 1017 hPa | 0 mm | - | 427 W/m² | - |
| 1778077086 | 26.67° C | 82% | 1017.1 hPa | 0 mm | - | 557 W/m² | - |
| 1778076784 | 26.67° C | 83% | 1016.9 hPa | 0 mm | - | 626 W/m² | - |
| 1778076482 | 27.22° C | 82% | 1016.8 hPa | 0 mm | - | 415 W/m² | - |
| 1778076178 | 26.67° C | 85% | 1016.7 hPa | 0 mm | - | 555 W/m² | - |
| 1778075875 | 26.67° C | 85% | 1016.8 hPa | 0 mm | - | 475 W/m² | - |
| 1778075571 | 26.67° C | 83% | 1016.9 hPa | 0 mm | - | 401 W/m² | - |
| 1778075268 | 26.67° C | 83% | 1017.2 hPa | 0 mm | - | 426 W/m² | - |
| 1778074965 | 26.11° C | 85% | 1017.1 hPa | 0 mm | - | 478 W/m² | - |
| 1778074662 | 26.11° C | 85% | 1016.8 hPa | 0 mm | - | 333 W/m² | - |
| 1778074358 | 26.11° C | 85% | 1016.8 hPa | 0 mm | - | 282 W/m² | - |
| 1778074055 | 26.11° C | 85% | 1016.9 hPa | 0 mm | - | 283 W/m² | - |
| 1778073753 | 26.11° C | 85% | 1016.8 hPa | 0 mm | - | 267 W/m² | - |
| 1778073451 | 26.11° C | 85% | 1016.6 hPa | 0 mm | - | 304 W/m² | - |
| 1778073146 | 26.67° C | 85% | 1016.5 hPa | 0 mm | - | 286 W/m² | - |
* Rain latest hour (hover to see other rain measurements)
** Current wind speed in m/s (hover to see current wind gust speed)